Tracking 29528 objects as of 12-Sep-2024
HD Live streaming from Space Station
objects crossing your sky now

FENGYUN 1C DEB

Track FENGYUN 1C DEB now!
10-day predictions


NORAD ID: 35109
Int'l Code: 1999-025DKM
Perigee: 722.5 km
Apogee: 943.8 km
Inclination: 98.6 °
Period: 101.4 minutes
Semi major axis: 7204 km
RCS: 0.0098 m2 (small)
Launch date: May 10, 1999
Source: People's Republic of China (PRC)
Launch site: Taiyaun Space Center, China (TSC)

Note: This is SATELLITE DEBRIS
Your satellite tracking list
Your tracking list is empty




NASA's NSSDC Master Catalog

Two Line Element Set (TLE):
1 35109U 99025DKM 24256.25373383  .00002349  00000-0  10035-2 0  9995
2 35109  98.5866 251.7974 0153552 275.0151  83.3513 14.19802111576794
Source of the keplerian elements: AFSPC